sat.trackr.live / text

‹ back to catalog

STARLINK-31059

NORAD 58596 · 2023-200H

PAYLOAD ACTIVE UNKNOWN

§ Identity

Operator
Country
US
Launch date
2023-12-19
Launch site
AFETR
Launch vehicle
Mass (kg)
RCS (m²)

Purposes: comms

External: N2YO · Heavens-Above · Gunter

§ Orbital elements

Epoch: 2026-05-25T03:26:32.760672Z

Period
94.27 min
Inclination
43.0003°
Eccentricity
0.0000788
Mean motion
15.27574244 rev/d
Perigee alt
482.5 km
Apogee alt
483.6 km
Semi-major
6,861.2 km
B*
5.2022e-5
RAAN
300.3639°
Arg perigee
284.2702°
Mean anomaly
75.8062°
Rev number
13,714

§ Raw data

STARLINK-310591 58596U 23200H   26145.14343473  .00001170  00000+0  52022-4 0  99902 58596  43.0003 300.3639 0000788 284.2702  75.8062 15.27574244137142

JSON: /api/v1/satellites/58596 · /tle

For live sub-satellite position, see the globe view (requires WebGL).

§ Visibility from observer

Set your observer location to see the next 7 days of passes ≥ 10°. The values pass through the URL so the page stays shareable.

No JS? Fill the form by hand. The geolocation button needs JavaScript.